Dati Storici

Data ora Umidita' aria (%) Temperatura aria (°C) Rad globale (W/m²) Gonioanemometro (°) Tacoanemometro (m/s) Pioggia (mm)
21-06-2020 04:10 97.7 % 17.232 8.199 0.381 0 0
21-06-2020 04:00 97.7 % 17.275 16.194 -0.002 0 0
21-06-2020 03:50 97.7 % 17.299 39.569 1.231 0 0
21-06-2020 03:40 97.7 % 17.418 32.814 1.673 0 0
21-06-2020 03:30 97.7 % 17.614 5.929 0.897 0 0
21-06-2020 03:20 97.7 % 17.89 341.913 1.259 0 0
21-06-2020 03:10 97.7 % 17.851 319.77 0.978 0 0
21-06-2020 03:00 97.7 % 17.767 26.638 -0.004 0 0
21-06-2020 02:50 97.7 % 17.866 38.446 0.571 0 0
21-06-2020 02:40 97.6 % 17.843 18.258 0.886 0 0
21-06-2020 02:30 97.6 % 17.984 6.938 -0.006 0 0
21-06-2020 02:20 97.6 % 18.122 63.588 -0.006 0 0
21-06-2020 02:10 97.6 % 18.29 12.71 0.502 0 0
21-06-2020 02:00 97.6 % 18.525 53.774 0.365 0 0
21-06-2020 01:50 96.5 % 18.814 9.723 -0.009 0 0
21-06-2020 01:40 93.2 % 18.755 18.733 -0.013 0 0
21-06-2020 01:30 89.9 % 18.962 18.794 -0.01 0 0
21-06-2020 01:20 89.1 % 19.255 41.842 0.776 0 0
21-06-2020 01:10 85.2 % 19.437 6.853 0.581 0 0
21-06-2020 01:00 82.2 % 19.694 10.893 0.19 0 0

I dati sono presentati in modo automatico a scopo informativo. In seguito a verifica i dati possono subire modifiche o essere invalidati e non riportati negli archivi definitivi.